DELTA 1 R/B(2) *, 11792

Orbit data source: Space-Track

DELTA 1 R/B(2) *, 11792 is space debris in HEO originally from a launch on Wed, 26 Oct 1966 UTC launched from the Air Force Eastern Test Range (AFETR). Debris objects in space refer to the collection of defunct objects orbiting the Earth. Examples of debris include non-operational satellites, rocket bodies, and fragments generated from explosions, collisions, or faulty payload assembly.

Loading next visibility...
Identifier
11792, 1966-096C
Orbit
HEO
Country
Flag of USUS
Related business
Manufacturer
Unknown
Mission
Spacecraft
Bus & Motor
Unknown
Mass
Unknown
Launch date (UTC)
1966-10-26 (59 years ago)
Launch vehicle
Unknown
Launch site
Air Force Eastern Test Range (AFETR)
Object type
Payload
Rocket body
Debris
Shape & HBR
Unknown
Radar Cross Section
Medium (>0.1 m² and <1 m²)

Expand to show TLE details & history
Last TLE update: 1 day ago

TLE from 1 day ago
0 DELTA 1 R/B(2) *
1 11792U 66096C   25349.01659653  .00006738  00000-0  66685-2 0  9992
2 11792  17.7148 194.1471 6075784  23.6058 355.4122  3.83194661424304
Epoch: 2025-12-15T00:23Z
TLE epoch observation values (Epoch: 2025-12-15T00:23:53.940Z)
Latitude
-0.00007°
Longitude
104.25456°
Altitude
609.008 km
Speed
9.538 km/s
True Right ascension
12h 56m 36s
True Declination
0° 00' 00"
Sunlit
Object was in daylight at epoch
Visualization orbit readout
Latitude
Unknown
Longitude
Unknown
Altitude
Unknown
Speed
Unknown
Apparent Right ascension
Unknown
Apparent Declination
Unknown
Sunlit
N/A
Visualization observer readout
Local Sidereal Time
00:56:52
Azimuth
Unknown
Elevation
Unknown
Doppler factor
Unknown
Orbital elements
Apogee altitude
21,359.648 km
Perigee altitude
392.858 km
Semi-major axis
17,254.39 km
Eccentricity
0.60758
Inclination
17.7148°
RAAN
194.1471°
Arg. of periapsis
23.6058°
True anomaly
336.82469°
Mean anomaly
355.4122°
Eccentric anomaly
348.43048°
Mean motion
0.95762 °/min
Orbital period
375.93 mins
BSTAR
0.0066685
Loading maneuver chart data...
Computing Atmospheric mass density...
Loading historical data...
Loading historical data...
Loading historical data...
Loading historical data...
Loading historical data...
Loading historical data...
Loading historical data...
Other satellites on launch #96 in the year 1966 (1966-10-26 UTC)

Documentation

Showing up to 5 results
|